| time (UTC) | temp F | wind direction | speed knots | gust knots | rain 1hr in | rain 24hr in | rain mn in | humidity % | barometer mb |
| 20260504223024 | 75 | 165 | 8.7 | 13.0 | 0.00 | 0.00 | 0.00 | 78 | 1011.2 |
| 20260504221523 | 75 | 145 | 7.8 | 14.8 | 0.00 | 0.00 | 0.00 | 78 | 1011.3 |
| 20260504220037 | 76 | 162 | 8.7 | 14.8 | 0.00 | 0.00 | 0.00 | 77 | 1011.4 |
| 20260504214525 | 76 | 122 | 8.7 | 13.0 | 0.00 | 0.00 | 0.00 | 78 | 1011.5 |
| 20260504213018 | 76 | 137 | 7.8 | 13.0 | 0.00 | 0.00 | 0.00 | 75 | 1011.6 |
| 20260504211525 | 76 | 165 | 7.8 | 13.0 | 0.00 | 0.00 | 0.00 | 77 | 1011.7 |
| 20260504210016 | 76 | 229 | 6.1 | 13.0 | 0.00 | 0.00 | 0.00 | 76 | 1011.9 |
| 20260504204544 | 76 | 174 | 7.8 | 12.2 | 0.00 | 0.00 | 0.00 | 77 | 1012.1 |
| 20260504203043 | 76 | 120 | 7.0 | 13.9 | 0.00 | 0.00 | 0.00 | 75 | 1012.2 |
| 20260504201550 | 76 | 161 | 7.8 | 13.0 | 0.00 | 0.00 | 0.00 | 75 | 1012.5 |
| 20260504200038 | 77 | 134 | 6.1 | 13.9 | 0.00 | 0.00 | 0.00 | 73 | 1012.6 |
| 20260504194537 | 77 | 165 | 7.8 | 11.3 | 0.00 | 0.00 | 0.00 | 73 | 1012.6 |
| 20260504193033 | 77 | 179 | 6.1 | 13.0 | 0.00 | 0.00 | 0.00 | 73 | 1013.1 |
| 20260504191503 | 77 | 213 | 7.8 | 13.9 | 0.00 | 0.00 | 0.00 | 72 | 1013.2 |
| 20260504190002 | 77 | 176 | 7.8 | 13.9 | 0.00 | 0.00 | 0.00 | 72 | 1013.3 |
| 20260504184534 | 77 | 171 | 7.0 | 13.9 | 0.00 | 0.00 | 0.00 | 69 | 1013.2 |
| 20260504183028 | 77 | 186 | 4.3 | 12.2 | 0.00 | 0.00 | 0.00 | 71 | 1013.3 |
| 20260504181531 | 76 | 171 | 7.8 | 12.2 | 0.00 | 0.00 | 0.00 | 73 | 1013.9 |
| 20260504180023 | 76 | 143 | 7.8 | 13.9 | 0.00 | 0.00 | 0.00 | 71 | 1014.0 |
| 20260504174520 | 76 | 163 | 7.0 | 14.8 | 0.00 | 0.00 | 0.00 | 73 | 1014.0 |
| 20260504173019 | 76 | 154 | 7.0 | 13.9 | 0.00 | 0.00 | 0.00 | 72 | 1014.4 |
| 20260504171547 | 76 | 169 | 7.0 | 13.0 | 0.00 | 0.00 | 0.00 | 71 | 1014.4 |
| 20260504100110 | 65 | 131 | 0.9 | 2.6 | 0.00 | 0.00 | 0.00 | 80 | 1015.1 |
| 20260504081550 | 66 | 141 | 0.9 | 1.7 | 0.00 | 0.00 | 0.00 | 79 | 1015.7 |
| 20260504044553 | 66 | 142 | 1.7 | 3.5 | 0.00 | 0.00 | 0.00 | 74 | 1017.8 |
| 20260504043047 | 67 | 154 | 2.6 | 4.3 | 0.00 | 0.00 | 0.00 | 72 | 1017.8 |
| 20260504041546 | 67 | 127 | 1.7 | 2.6 | 0.00 | 0.00 | 0.00 | 73 | 1017.7 |
| 20260504040046 | 68 | 160 | 1.7 | 3.5 | 0.00 | 0.00 | 0.00 | 71 | 1017.7 |
| 20260504034542 | 69 | 145 | 2.6 | 4.3 | 0.00 | 0.00 | 0.00 | 69 | 1017.8 |
| 20260504033048 | 69 | 150 | 2.6 | 4.3 | 0.00 | 0.00 | 0.00 | 69 | 1017.8 |
| 20260504031537 | 69 | 146 | 3.5 | 5.2 | 0.00 | 0.00 | 0.00 | 68 | 1017.7 |
| 20260504030036 | 69 | 157 | 3.5 | 5.2 | 0.00 | 0.00 | 0.00 | 70 | 1017.6 |
| 20260504024544 | 69 | 144 | 3.5 | 5.2 | 0.00 | 0.00 | 0.00 | 68 | 1017.8 |
| 20260504023032 | 69 | 150 | 2.6 | 5.2 | 0.00 | 0.00 | 0.00 | 70 | 1017.7 |
| 20260504021530 | 69 | 161 | 3.5 | 5.2 | 0.00 | 0.00 | 0.00 | 66 | 1017.7 |
| 20260504020030 | 70 | 142 | 3.5 | 5.2 | 0.00 | 0.00 | 0.00 | 65 | 1017.6 |
| 20260504014525 | 70 | 156 | 3.5 | 6.1 | 0.00 | 0.00 | 0.00 | 66 | 1017.6 |
| 20260504013022 | 70 | 181 | 3.5 | 7.0 | 0.00 | 0.00 | 0.00 | 64 | 1017.6 |
| 20260504011523 | 71 | 156 | 5.2 | 7.8 | 0.00 | 0.00 | 0.00 | 65 | 1017.4 |
| 20260504010021 | 71 | 163 | 4.3 | 7.0 | 0.00 | 0.00 | 0.00 | 62 | 1017.5 |
| 20260504004537 | 72 | 167 | 4.3 | 7.8 | 0.00 | 0.00 | 0.00 | 60 | 1017.4 |
| 20260504003018 | 72 | 143 | 5.2 | 8.7 | 0.00 | 0.00 | 0.00 | 61 | 1017.4 |
| 20260504001517 | 72 | 160 | 6.1 | 9.6 | 0.00 | 0.00 | 0.00 | 63 | 1017.4 |
| 20260504000017 | 73 | 165 | 5.2 | 8.7 | 0.00 | 0.00 | 0.00 | 63 | 1017.4 |
| 20260503234513 | 73 | 138 | 6.1 | 9.6 | 0.00 | 0.00 | 0.00 | 61 | 1017.6 |
| 20260503233009 | 73 | 138 | 7.8 | 9.6 | 0.00 | 0.00 | 0.00 | 60 | 1017.7 |
| 20260503231509 | 74 | 136 | 5.2 | 8.7 | 0.00 | 0.00 | 0.00 | 60 | 1017.8 |
| 20260503230008 | 74 | 120 | 7.0 | 9.6 | 0.00 | 0.00 | 0.00 | 59 | 1017.8 |
| 20260503224505 | 74 | 122 | 4.3 | 9.6 | 0.00 | 0.00 | 0.00 | 60 | 1017.9 |